Regional Weather Roundup
Issued by NWS Cleveland, OH

Home | Current Version | Previous Version | Graphics & Text | Print | Product List | Glossary On
Versions: 1 2 3 4 5 6 7 8 9 10 11 12 13 14 15 16 17 18 19 20 21 22 23 24 25 26 27 28 29 30 31 32 33 34 35 36 37 38 39 40 41 42 43 44 45 46 47 48 49 50
000
ASUS41 KCLE 181210
RWRCLE
OHIO REGIONAL WEATHER ROUNDUP
NATIONAL WEATHER SERVICE WILMINGTON, OH
800 AM EDT WED OCT 18 2017

NOTE: "FAIR" INDICATES FEW OR NO CLOUDS BELOW 12,000 FEET WITH NO
SIGNIFICANT WEATHER AND/OR OBSTRUCTIONS TO VISIBILITY.

OHZ001>008-015>018-024>027-034-035-043-044-181300-
   NORTHWEST OHIO

CITY           SKY/WX    TMP DP  RH WIND       PRES   REMARKS
DEFIANCE       FAIR      42  37  82 CALM      30.27S
FINDLAY        FAIR      45  38  76 S5        30.28R
TOLEDO EXPRESS FAIR      39  39 100 CALM      30.27S
TOLEDO EXEC    FAIR      42  38  85 S6        30.28S
LIMA           FAIR      44  40  85 S6        30.29R
$$

OHZ009>014-019>023-028>033-038-089-181300-
   NORTHEAST OHIO

CITY           SKY/WX    TMP DP  RH WIND       PRES   REMARKS
CLE-HOPKINS    FAIR      47  40  76 S3        30.32S
CLE-LAKEFRONT  FAIR      50  39  66 SE8       30.29R
CUY CO. ARPT   CLEAR     50  39  66 S5        30.30S
LORAIN-ELYRIA  FAIR      41  35  79 SW3       30.31R
ASHTABULA      FAIR      44  40  85 S3        30.31S
AKRON-CANTON   FAIR      44  37  76 S5        30.32R
WOOSTER        FAIR      35  34  96 CALM      30.32S
MANSFIELD      FAIR      44  39  82 CALM      30.30R
YOUNGSTOWN     FAIR      41  37  86 S3        30.32R
$$

OHZ042-051>053-060>062-070>072-077>081-181300-
  SOUTHWEST OHIO

CITY           SKY/WX    TMP DP  RH WIND       PRES   REMARKS
CINC-COVINGTON FAIR      44  41  89 S3        30.30S
CINC-LUNKEN    FOG       40  40 100 CALM      30.33S VSB 1/2
HAMILTON       FAIR      35  34  96 CALM      30.32S
DAYTON         FAIR      41  40  96 SE6       30.31R
WRIGHT-PAT AFB CLEAR     40  40  98 CALM      30.31R
DAYTON GENERAL FAIR      44  38  79 S6        30.30R
WILMINGTON     FAIR      41  39  93 SE3       30.32R
$$

OHZ036-037-039>041-045>050-054>059-063>069-073>076-082>088-181300-
  CENTRAL AND SOUTHEAST OHIO

CITY           SKY/WX    TMP DP  RH WIND       PRES   REMARKS
COLUMBUS       FAIR      43  40  89 CALM      30.31S
OSU AIRPORT    FAIR      43  41  93 S3        30.32R
BOLTON FIELD   CLEAR     36  36 100 CALM      30.33R
RICKENBACK AFB FAIR      38  39 100 CALM      30.32R
NEWARK         FAIR      36  34  92 CALM      30.32S
MARION         FAIR      41  38  89 S3        30.31R
LANCASTER      FAIR      35  34  96 CALM      30.33R
ZANESVILLE     FAIR      38  35  89 CALM      30.33S
NEW PHILLY     FAIR      38  37  97 CALM      30.35R FOG
$$




USA.gov is the U.S. government's official web portal to all federal, state and local government web resources and services.